Year,Month,Day,Hour,Minute,Value (Times are PST for temperature in C)
2016,02,24,00,00,8.20
2016,02,24,00,01,8.20
2016,02,24,00,02,8.20
2016,02,24,00,03,8.20
2016,02,24,00,04,8.20
2016,02,24,00,05,8.20
2016,02,24,00,06,8.20
2016,02,24,00,07,8.20
2016,02,24,00,08,8.10
2016,02,24,00,09,8.10
2016,02,24,00,10,8.10
2016,02,24,00,11,8.10
2016,02,24,00,12,8.10
2016,02,24,00,13,8.10
2016,02,24,00,14,8.10
2016,02,24,00,15,8.10
2016,02,24,00,16,8.10
2016,02,24,00,17,8.20
2016,02,24,00,18,8.20
2016,02,24,00,19,8.20
2016,02,24,00,20,8.10
2016,02,24,00,21,8.10
2016,02,24,00,22,8.10
2016,02,24,00,23,8.10
2016,02,24,00,24,8.10
2016,02,24,00,25,8.10
2016,02,24,00,26,8.10
2016,02,24,00,27,8.10
2016,02,24,00,28,8.10
2016,02,24,00,29,8.10
2016,02,24,00,30,8.10
2016,02,24,00,31,8.10
2016,02,24,00,32,8.10
2016,02,24,00,33,8.10
2016,02,24,00,34,8.10
2016,02,24,00,35,8.20
2016,02,24,00,36,8.20
2016,02,24,00,37,8.20
2016,02,24,00,38,8.20
2016,02,24,00,39,8.20
2016,02,24,00,40,8.20
2016,02,24,00,41,8.20
2016,02,24,00,42,8.30
2016,02,24,00,43,8.40
2016,02,24,00,44,8.40
2016,02,24,00,45,8.50
2016,02,24,00,46,8.50
2016,02,24,00,47,8.50
2016,02,24,00,48,8.50
2016,02,24,00,49,8.50
2016,02,24,00,50,8.50
2016,02,24,00,51,8.50
2016,02,24,00,52,8.50
2016,02,24,00,53,8.50
2016,02,24,00,54,8.40
2016,02,24,00,55,8.40
2016,02,24,00,56,8.30
2016,02,24,00,57,8.30
2016,02,24,00,58,8.30
2016,02,24,00,59,8.20
2016,02,24,01,00,8.20
2016,02,24,01,01,8.20
2016,02,24,01,02,8.10
2016,02,24,01,03,8.10
2016,02,24,01,04,8.00
2016,02,24,01,05,8.00
2016,02,24,01,06,8.00
2016,02,24,01,07,8.00
2016,02,24,01,08,8.00
2016,02,24,01,09,8.00
2016,02,24,01,10,8.00
2016,02,24,01,11,8.00
2016,02,24,01,12,8.00
2016,02,24,01,13,8.00
2016,02,24,01,14,7.90
2016,02,24,01,15,7.90
2016,02,24,01,16,7.90
2016,02,24,01,17,7.90
2016,02,24,01,18,7.90
2016,02,24,01,19,7.90
2016,02,24,01,20,7.90
2016,02,24,01,21,7.90
2016,02,24,01,22,7.90
2016,02,24,01,23,7.80
2016,02,24,01,24,7.80
2016,02,24,01,25,7.80
2016,02,24,01,26,7.80
2016,02,24,01,27,7.80
2016,02,24,01,28,7.80
2016,02,24,01,29,7.80
2016,02,24,01,30,7.80
2016,02,24,01,31,7.80
2016,02,24,01,32,7.80
2016,02,24,01,33,7.80
2016,02,24,01,34,7.80
2016,02,24,01,35,7.80
2016,02,24,01,36,7.80
2016,02,24,01,37,7.80
2016,02,24,01,38,7.80
2016,02,24,01,39,7.80
2016,02,24,01,40,7.80
2016,02,24,01,41,7.80
2016,02,24,01,42,7.80
2016,02,24,01,43,7.80
2016,02,24,01,44,7.90
2016,02,24,01,45,7.90
2016,02,24,01,46,7.90
2016,02,24,01,47,7.80
2016,02,24,01,48,7.80
2016,02,24,01,49,7.80
2016,02,24,01,50,7.90
2016,02,24,01,51,7.90
2016,02,24,01,52,7.90
2016,02,24,01,53,7.90
2016,02,24,01,54,7.90
2016,02,24,01,55,7.90
2016,02,24,01,56,7.90
2016,02,24,01,57,7.90
2016,02,24,01,58,7.90
2016,02,24,01,59,7.90
2016,02,24,02,00,7.90
2016,02,24,02,01,7.90
2016,02,24,02,02,7.90
2016,02,24,02,03,7.90
2016,02,24,02,04,7.90
2016,02,24,02,05,7.90
2016,02,24,02,06,7.80
2016,02,24,02,07,7.80
2016,02,24,02,08,7.80
2016,02,24,02,09,7.80
2016,02,24,02,10,7.80
2016,02,24,02,11,7.80
2016,02,24,02,12,7.80
2016,02,24,02,13,7.80
2016,02,24,02,14,7.80
2016,02,24,02,15,7.70
2016,02,24,02,16,7.70
2016,02,24,02,17,7.70
2016,02,24,02,18,7.60
2016,02,24,02,19,7.60
2016,02,24,02,20,7.60
2016,02,24,02,21,7.60
2016,02,24,02,22,7.60
2016,02,24,02,23,7.50
2016,02,24,02,24,7.50
2016,02,24,02,25,7.50
2016,02,24,02,26,7.50
2016,02,24,02,27,7.50
2016,02,24,02,28,7.50
2016,02,24,02,29,7.50
2016,02,24,02,30,7.50
2016,02,24,02,31,7.60
2016,02,24,02,32,7.60
2016,02,24,02,33,7.60
2016,02,24,02,34,7.60
2016,02,24,02,35,7.60
2016,02,24,02,36,7.60
2016,02,24,02,37,7.60
2016,02,24,02,38,7.60
2016,02,24,02,39,7.60
2016,02,24,02,40,7.60
2016,02,24,02,41,7.60
2016,02,24,02,42,7.60
2016,02,24,02,43,7.60
2016,02,24,02,44,7.60
2016,02,24,02,45,7.60
2016,02,24,02,46,7.60
2016,02,24,02,47,7.60
2016,02,24,02,48,7.60
2016,02,24,02,49,7.60
2016,02,24,02,50,7.60
2016,02,24,02,51,7.60
2016,02,24,02,52,7.60
2016,02,24,02,53,7.60
2016,02,24,02,54,7.60
2016,02,24,02,55,7.60
2016,02,24,02,56,7.60
2016,02,24,02,57,7.50
2016,02,24,02,58,7.50
2016,02,24,02,59,7.50
2016,02,24,03,00,7.50
2016,02,24,03,01,7.50
2016,02,24,03,02,7.40
2016,02,24,03,03,7.40
2016,02,24,03,04,7.40
2016,02,24,03,05,7.40
2016,02,24,03,06,7.40
2016,02,24,03,07,7.40
2016,02,24,03,08,7.40
2016,02,24,03,09,7.40
2016,02,24,03,10,7.40
2016,02,24,03,11,7.30
2016,02,24,03,12,7.30
2016,02,24,03,13,7.30
2016,02,24,03,14,7.30
2016,02,24,03,15,7.30
2016,02,24,03,16,7.30
2016,02,24,03,17,7.30
2016,02,24,03,18,7.30
2016,02,24,03,19,7.30
2016,02,24,03,20,7.30
2016,02,24,03,21,7.30
2016,02,24,03,22,7.30
2016,02,24,03,23,7.20
2016,02,24,03,24,7.20
2016,02,24,03,25,7.20
2016,02,24,03,26,7.20
2016,02,24,03,27,7.20
2016,02,24,03,28,7.20
2016,02,24,03,29,7.10
2016,02,24,03,30,7.10
2016,02,24,03,31,7.10
2016,02,24,03,32,7.00
2016,02,24,03,33,7.00
2016,02,24,03,34,6.90
2016,02,24,03,35,6.90
2016,02,24,03,36,6.90
2016,02,24,03,37,6.90
2016,02,24,03,38,6.90
2016,02,24,03,39,6.80
2016,02,24,03,40,6.80
2016,02,24,03,41,6.80
2016,02,24,03,42,6.80
2016,02,24,03,43,6.80
2016,02,24,03,44,6.80
2016,02,24,03,45,6.80
2016,02,24,03,46,6.80
2016,02,24,03,47,6.80
2016,02,24,03,48,6.80
2016,02,24,03,49,6.80
2016,02,24,03,50,6.80
2016,02,24,03,51,6.90
2016,02,24,03,52,7.00
2016,02,24,03,53,7.00
2016,02,24,03,54,7.00
2016,02,24,03,55,7.00
2016,02,24,03,56,7.00
2016,02,24,03,57,7.00
2016,02,24,03,58,7.00
2016,02,24,03,59,7.10
2016,02,24,04,00,7.10
2016,02,24,04,01,7.00
2016,02,24,04,02,7.00
2016,02,24,04,03,7.00
2016,02,24,04,04,7.00
2016,02,24,04,05,6.90
2016,02,24,04,06,6.90
2016,02,24,04,07,6.90
2016,02,24,04,08,6.80
2016,02,24,04,09,6.80
2016,02,24,04,10,6.80
2016,02,24,04,11,6.80
2016,02,24,04,12,6.80
2016,02,24,04,13,6.80
2016,02,24,04,14,6.80
2016,02,24,04,15,6.80
2016,02,24,04,16,6.80
2016,02,24,04,17,6.80
2016,02,24,04,18,6.80
2016,02,24,04,19,6.80
2016,02,24,04,20,6.80
2016,02,24,04,21,6.80
2016,02,24,04,22,6.80
2016,02,24,04,23,6.70
2016,02,24,04,24,6.70
2016,02,24,04,25,6.70
2016,02,24,04,26,6.70
2016,02,24,04,27,6.70
2016,02,24,04,28,6.60
2016,02,24,04,29,6.60
2016,02,24,04,30,6.70
2016,02,24,04,31,6.70
2016,02,24,04,32,6.70
2016,02,24,04,33,6.80
2016,02,24,04,34,6.80
2016,02,24,04,35,6.80
2016,02,24,04,36,6.80
2016,02,24,04,37,6.80
2016,02,24,04,38,6.80
2016,02,24,04,39,6.80
2016,02,24,04,40,6.80
2016,02,24,04,41,6.90
2016,02,24,04,42,6.90
2016,02,24,04,43,6.90
2016,02,24,04,44,6.90
2016,02,24,04,45,6.90
2016,02,24,04,46,6.90
2016,02,24,04,47,6.90
2016,02,24,04,48,6.90
2016,02,24,04,49,6.90
2016,02,24,04,50,6.90
2016,02,24,04,51,6.90
2016,02,24,04,52,6.90
2016,02,24,04,53,6.90
2016,02,24,04,54,6.90
2016,02,24,04,55,6.80
2016,02,24,04,56,6.80
2016,02,24,04,57,6.80
2016,02,24,04,58,6.80
2016,02,24,04,59,6.80
2016,02,24,05,00,6.80
2016,02,24,05,01,6.80
2016,02,24,05,02,6.80
2016,02,24,05,03,6.80
2016,02,24,05,04,6.80
2016,02,24,05,05,6.80
2016,02,24,05,06,6.80
2016,02,24,05,07,6.80
2016,02,24,05,08,6.80
2016,02,24,05,09,6.80
2016,02,24,05,10,6.80
2016,02,24,05,11,6.80
2016,02,24,05,12,6.80
2016,02,24,05,13,6.80
2016,02,24,05,14,6.80
2016,02,24,05,15,6.80
2016,02,24,05,16,6.80
2016,02,24,05,17,6.80
2016,02,24,05,18,6.80
2016,02,24,05,19,6.80
2016,02,24,05,20,6.70
2016,02,24,05,21,6.70
2016,02,24,05,22,6.60
2016,02,24,05,23,6.60
2016,02,24,05,24,6.60
2016,02,24,05,25,6.60
2016,02,24,05,26,6.60
2016,02,24,05,27,6.60
2016,02,24,05,28,6.60
2016,02,24,05,29,6.60
2016,02,24,05,30,6.60
2016,02,24,05,31,6.60
2016,02,24,05,32,6.60
2016,02,24,05,33,6.60
2016,02,24,05,34,6.60
2016,02,24,05,35,6.60
2016,02,24,05,36,6.60
2016,02,24,05,37,6.50
2016,02,24,05,38,6.40
2016,02,24,05,39,6.40
2016,02,24,05,40,6.40
2016,02,24,05,41,6.40
2016,02,24,05,42,6.40
2016,02,24,05,43,6.40
2016,02,24,05,44,6.40
2016,02,24,05,45,6.40
2016,02,24,05,46,6.40
2016,02,24,05,47,6.50
2016,02,24,05,48,6.60
2016,02,24,05,49,6.60
2016,02,24,05,50,6.70
2016,02,24,05,51,6.80
2016,02,24,05,52,6.80
2016,02,24,05,53,6.80
2016,02,24,05,54,6.90
2016,02,24,05,55,6.90
2016,02,24,05,56,7.00
2016,02,24,05,57,7.00
2016,02,24,05,58,7.00
2016,02,24,05,59,7.00
2016,02,24,06,00,7.00
2016,02,24,06,01,7.00
2016,02,24,06,02,7.00
2016,02,24,06,03,7.00
2016,02,24,06,04,7.00
2016,02,24,06,05,7.00
2016,02,24,06,06,6.90
2016,02,24,06,07,6.90
2016,02,24,06,08,6.90
2016,02,24,06,09,6.90
2016,02,24,06,10,6.90
2016,02,24,06,11,6.90
2016,02,24,06,12,6.90
2016,02,24,06,13,6.90
2016,02,24,06,14,6.90
2016,02,24,06,15,6.90
2016,02,24,06,16,6.90
2016,02,24,06,17,6.90
2016,02,24,06,18,6.90
2016,02,24,06,19,6.80
2016,02,24,06,20,6.80
2016,02,24,06,21,6.80
2016,02,24,06,22,6.80
2016,02,24,06,23,6.80
2016,02,24,06,24,6.80
2016,02,24,06,25,6.80
2016,02,24,06,26,6.80
2016,02,24,06,27,6.70
2016,02,24,06,28,6.70
2016,02,24,06,29,6.70
2016,02,24,06,30,6.70
2016,02,24,06,31,6.60
2016,02,24,06,32,6.60
2016,02,24,06,33,6.60
2016,02,24,06,34,6.60
2016,02,24,06,35,6.60
2016,02,24,06,36,6.60
2016,02,24,06,37,6.60
2016,02,24,06,38,6.50
2016,02,24,06,39,6.40
2016,02,24,06,40,6.40
2016,02,24,06,41,6.40
2016,02,24,06,42,6.40
2016,02,24,06,43,6.40
2016,02,24,06,44,6.40
2016,02,24,06,45,6.40
2016,02,24,06,46,6.40
2016,02,24,06,47,6.40
2016,02,24,06,48,6.40
2016,02,24,06,49,6.40
2016,02,24,06,50,6.30
2016,02,24,06,51,6.30
2016,02,24,06,52,6.30
2016,02,24,06,53,6.20
2016,02,24,06,54,6.20
2016,02,24,06,55,6.20
2016,02,24,06,56,6.20
2016,02,24,06,57,6.20
2016,02,24,06,58,6.10
2016,02,24,06,59,6.00
2016,02,24,07,00,6.00
2016,02,24,07,01,5.90
2016,02,24,07,02,5.80
2016,02,24,07,03,5.80
2016,02,24,07,04,5.80
2016,02,24,07,05,5.70
2016,02,24,07,06,5.70
2016,02,24,07,07,5.70
2016,02,24,07,08,5.60
2016,02,24,07,09,5.60
2016,02,24,07,10,5.60
2016,02,24,07,11,5.50
2016,02,24,07,12,5.50
2016,02,24,07,13,5.50
2016,02,24,07,14,5.40
2016,02,24,07,15,5.30
2016,02,24,07,16,5.30
2016,02,24,07,17,5.30
2016,02,24,07,18,5.20
2016,02,24,07,19,5.20
2016,02,24,07,20,5.10
2016,02,24,07,21,5.10
2016,02,24,07,22,5.10
2016,02,24,07,23,5.10
2016,02,24,07,24,5.00
2016,02,24,07,25,4.90
2016,02,24,07,26,4.90
2016,02,24,07,27,4.90
2016,02,24,07,28,4.90
2016,02,24,07,29,4.90
2016,02,24,07,30,4.90
2016,02,24,07,31,4.90
2016,02,24,07,32,4.90
2016,02,24,07,33,4.90
2016,02,24,07,34,5.00
2016,02,24,07,35,5.10
2016,02,24,07,36,5.10
2016,02,24,07,37,5.10
2016,02,24,07,38,5.10
2016,02,24,07,39,5.10
2016,02,24,07,40,5.10
2016,02,24,07,41,5.10
2016,02,24,07,42,5.10
2016,02,24,07,43,5.10
2016,02,24,07,44,5.10
2016,02,24,07,45,5.20
2016,02,24,07,46,5.20
2016,02,24,07,47,5.20
2016,02,24,07,48,5.20
2016,02,24,07,49,5.20
2016,02,24,07,50,5.20
2016,02,24,07,51,5.20
2016,02,24,07,52,5.20
2016,02,24,07,53,5.20
2016,02,24,07,54,5.20
2016,02,24,07,55,5.20
2016,02,24,07,56,5.20
2016,02,24,07,57,5.20
2016,02,24,07,58,5.20
2016,02,24,07,59,5.20
2016,02,24,08,00,5.30
2016,02,24,08,01,5.30
2016,02,24,08,02,5.30
2016,02,24,08,03,5.30
2016,02,24,08,04,5.30
2016,02,24,08,05,5.30
2016,02,24,08,06,5.30
2016,02,24,08,07,5.30
2016,02,24,08,08,5.40
2016,02,24,08,09,5.40
2016,02,24,08,10,5.40
2016,02,24,08,11,5.40
2016,02,24,08,12,5.40
2016,02,24,08,13,5.40
2016,02,24,08,14,5.40
2016,02,24,08,15,5.40
2016,02,24,08,16,5.40
2016,02,24,08,17,5.40
2016,02,24,08,18,5.40
2016,02,24,08,19,5.40
2016,02,24,08,20,5.50
2016,02,24,08,21,5.50
2016,02,24,08,22,5.50
2016,02,24,08,23,5.50
2016,02,24,08,24,5.60
2016,02,24,08,25,5.60
2016,02,24,08,26,5.70
2016,02,24,08,27,5.70
2016,02,24,08,28,5.80
2016,02,24,08,29,5.90
2016,02,24,08,30,5.90
2016,02,24,08,31,6.00
2016,02,24,08,32,6.00
2016,02,24,08,33,6.10
2016,02,24,08,34,6.10
2016,02,24,08,35,6.10
2016,02,24,08,36,6.20
2016,02,24,08,37,6.20
2016,02,24,08,38,6.20
2016,02,24,08,39,6.20
2016,02,24,08,40,6.30
2016,02,24,08,41,6.30
2016,02,24,08,42,6.30
2016,02,24,08,43,6.40
2016,02,24,08,44,6.40
2016,02,24,08,45,6.40
2016,02,24,08,46,6.50
2016,02,24,08,47,6.60
2016,02,24,08,48,6.60
2016,02,24,08,49,6.60
2016,02,24,08,50,6.60
2016,02,24,08,51,6.70
2016,02,24,08,52,6.80
2016,02,24,08,53,6.80
2016,02,24,08,54,6.80
2016,02,24,08,55,6.80
2016,02,24,08,56,6.80
2016,02,24,08,57,6.90
2016,02,24,08,58,6.90
2016,02,24,08,59,7.00
2016,02,24,09,00,7.00
2016,02,24,09,01,7.10
2016,02,24,09,02,7.20
2016,02,24,09,03,7.20
2016,02,24,09,04,7.30
2016,02,24,09,05,7.30
2016,02,24,09,06,7.30
2016,02,24,09,07,7.40
2016,02,24,09,08,7.40
2016,02,24,09,09,7.40
2016,02,24,09,10,7.40
2016,02,24,09,11,7.50
2016,02,24,09,12,7.50
2016,02,24,09,13,7.50
2016,02,24,09,14,7.60
2016,02,24,09,15,7.60
2016,02,24,09,16,7.70
2016,02,24,09,17,7.70
2016,02,24,09,18,7.80
2016,02,24,09,19,7.80
2016,02,24,09,20,7.90
2016,02,24,09,21,7.90
2016,02,24,09,22,8.00
2016,02,24,09,23,8.00
2016,02,24,09,24,8.10
2016,02,24,09,25,8.20
2016,02,24,09,26,8.30
2016,02,24,09,27,8.40
2016,02,24,09,28,8.50
2016,02,24,09,29,8.50
2016,02,24,09,30,8.50
2016,02,24,09,31,8.50
2016,02,24,09,32,8.60
2016,02,24,09,33,8.60
2016,02,24,09,34,8.70
2016,02,24,09,35,8.70
2016,02,24,09,36,8.80
2016,02,24,09,37,8.90
2016,02,24,09,38,8.90
2016,02,24,09,39,8.90
2016,02,24,09,40,9.00
2016,02,24,09,41,9.00
2016,02,24,09,42,9.10
2016,02,24,09,43,9.10
2016,02,24,09,44,9.10
2016,02,24,09,45,9.20
2016,02,24,09,46,9.20
2016,02,24,09,47,9.20
2016,02,24,09,48,9.20
2016,02,24,09,49,9.20
2016,02,24,09,50,9.20
2016,02,24,09,51,9.20
2016,02,24,09,52,9.20
2016,02,24,09,53,9.20
2016,02,24,09,54,9.20
2016,02,24,09,55,9.20
2016,02,24,09,56,9.20
2016,02,24,09,57,9.10
2016,02,24,09,58,9.10
2016,02,24,09,59,9.10
2016,02,24,10,00,9.10
2016,02,24,10,01,9.10
2016,02,24,10,02,9.20
2016,02,24,10,03,9.20
2016,02,24,10,04,9.20
2016,02,24,10,05,9.20
2016,02,24,10,06,9.20
2016,02,24,10,07,9.20
2016,02,24,10,08,9.30
2016,02,24,10,09,9.30
2016,02,24,10,10,9.40
2016,02,24,10,11,9.40
2016,02,24,10,12,9.50
2016,02,24,10,13,9.50
2016,02,24,10,14,9.60
2016,02,24,10,15,9.70
2016,02,24,10,16,9.70
2016,02,24,10,17,9.70
2016,02,24,10,18,9.80
2016,02,24,10,19,9.80
2016,02,24,10,20,9.80
2016,02,24,10,21,9.80
2016,02,24,10,22,9.70
2016,02,24,10,23,9.70
2016,02,24,10,24,9.70
2016,02,24,10,25,9.70
2016,02,24,10,26,9.80
2016,02,24,10,27,9.80
2016,02,24,10,28,9.80
2016,02,24,10,29,9.80
2016,02,24,10,30,9.80
2016,02,24,10,31,9.80
2016,02,24,10,32,9.80
2016,02,24,10,33,9.80
2016,02,24,10,34,9.80
2016,02,24,10,35,9.90
2016,02,24,10,36,9.90
2016,02,24,10,37,9.90
2016,02,24,10,38,9.90
2016,02,24,10,39,9.90
2016,02,24,10,40,10.10
2016,02,24,10,41,10.10
2016,02,24,10,42,10.10
2016,02,24,10,43,10.10
2016,02,24,10,44,10.10
2016,02,24,10,45,10.10
2016,02,24,10,46,10.10
2016,02,24,10,47,10.20
2016,02,24,10,48,10.20
2016,02,24,10,49,10.20
2016,02,24,10,50,10.20
2016,02,24,10,51,10.10
2016,02,24,10,52,10.10
2016,02,24,10,53,10.20
2016,02,24,10,54,10.20
2016,02,24,10,55,10.20
2016,02,24,10,56,10.20
2016,02,24,10,57,10.20
2016,02,24,10,58,10.30
2016,02,24,10,59,10.30
2016,02,24,11,00,10.30
2016,02,24,11,01,10.40
2016,02,24,11,02,10.40
2016,02,24,11,03,10.40
2016,02,24,11,04,10.30
2016,02,24,11,05,10.30
2016,02,24,11,06,10.20
2016,02,24,11,07,10.20
2016,02,24,11,08,10.20
2016,02,24,11,09,10.30
2016,02,24,11,10,10.30
2016,02,24,11,11,10.40
2016,02,24,11,12,10.40
2016,02,24,11,13,10.40
2016,02,24,11,14,10.50
2016,02,24,11,15,10.60
2016,02,24,11,16,10.60
2016,02,24,11,17,10.60
2016,02,24,11,18,10.70
2016,02,24,11,19,10.80
2016,02,24,11,20,10.80
2016,02,24,11,21,10.80
2016,02,24,11,22,10.90
2016,02,24,11,23,10.90
2016,02,24,11,24,11.00
2016,02,24,11,25,11.10
2016,02,24,11,26,11.10
2016,02,24,11,27,11.10
2016,02,24,11,28,11.10
2016,02,24,11,29,11.10
2016,02,24,11,30,11.20
2016,02,24,11,31,11.30
2016,02,24,11,32,11.40
2016,02,24,11,33,11.40
2016,02,24,11,34,11.40
2016,02,24,11,35,11.40
2016,02,24,11,36,11.40
2016,02,24,11,37,11.40
2016,02,24,11,38,11.40
2016,02,24,11,39,11.40
2016,02,24,11,40,11.30
2016,02,24,11,41,11.20
2016,02,24,11,42,11.10
2016,02,24,11,43,11.10
2016,02,24,11,44,11.10
2016,02,24,11,45,11.10
2016,02,24,11,46,11.10
2016,02,24,11,47,11.10
2016,02,24,11,48,11.20
2016,02,24,11,49,11.30
2016,02,24,11,50,11.40
2016,02,24,11,51,11.60
2016,02,24,11,52,11.70
2016,02,24,11,53,11.70
2016,02,24,11,54,11.60
2016,02,24,11,55,11.60
2016,02,24,11,56,11.70
2016,02,24,11,57,11.80
2016,02,24,11,58,11.80
2016,02,24,11,59,11.80
2016,02,24,12,00,11.80
2016,02,24,12,01,11.80
2016,02,24,12,02,11.70
2016,02,24,12,03,11.70
2016,02,24,12,04,11.80
2016,02,24,12,05,11.80
2016,02,24,12,06,11.90
2016,02,24,12,07,11.80
2016,02,24,12,08,11.80
2016,02,24,12,09,11.80
2016,02,24,12,10,11.70
2016,02,24,12,11,11.70
2016,02,24,12,12,11.70
2016,02,24,12,13,11.80
2016,02,24,12,14,11.90
2016,02,24,12,15,11.90
2016,02,24,12,16,11.90
2016,02,24,12,17,11.80
2016,02,24,12,18,11.80
2016,02,24,12,19,11.80
2016,02,24,12,20,11.90
2016,02,24,12,21,12.00
2016,02,24,12,22,12.10
2016,02,24,12,23,12.10
2016,02,24,12,24,12.10
2016,02,24,12,25,12.10
2016,02,24,12,26,12.20
2016,02,24,12,27,12.30
2016,02,24,12,28,12.30
2016,02,24,12,29,12.40
2016,02,24,12,30,12.40
2016,02,24,12,31,12.30
2016,02,24,12,32,12.40
2016,02,24,12,33,12.40
2016,02,24,12,34,12.50
2016,02,24,12,35,12.60
2016,02,24,12,36,12.60
2016,02,24,12,37,12.70
2016,02,24,12,38,12.60
2016,02,24,12,39,12.60
2016,02,24,12,40,12.60
2016,02,24,12,41,12.70
2016,02,24,12,42,12.70
2016,02,24,12,43,12.60
2016,02,24,12,44,12.60
2016,02,24,12,45,12.50
2016,02,24,12,46,12.50
2016,02,24,12,47,12.40
2016,02,24,12,48,12.40
2016,02,24,12,49,12.30
2016,02,24,12,50,12.30
2016,02,24,12,51,12.20
2016,02,24,12,52,12.20
2016,02,24,12,53,12.10
2016,02,24,12,54,11.90
2016,02,24,12,55,11.80
2016,02,24,12,56,11.80
2016,02,24,12,57,11.60
2016,02,24,12,58,11.60
2016,02,24,12,59,11.60
2016,02,24,13,00,11.50
2016,02,24,13,01,11.40
2016,02,24,13,02,11.40
2016,02,24,13,03,11.40
2016,02,24,13,04,11.40
2016,02,24,13,05,11.40
2016,02,24,13,06,11.40
2016,02,24,13,07,11.40
2016,02,24,13,08,11.40
2016,02,24,13,09,11.40
2016,02,24,13,10,11.40
2016,02,24,13,11,11.40
2016,02,24,13,12,11.30
2016,02,24,13,13,11.20
2016,02,24,13,14,11.20
2016,02,24,13,15,11.10
2016,02,24,13,16,11.00
2016,02,24,13,17,10.90
2016,02,24,13,18,10.80
2016,02,24,13,19,10.80
2016,02,24,13,20,10.80
2016,02,24,13,21,10.80
2016,02,24,13,22,10.80
2016,02,24,13,23,10.80
2016,02,24,13,24,10.80
2016,02,24,13,25,10.90
2016,02,24,13,26,10.90
2016,02,24,13,27,10.90
2016,02,24,13,28,10.80
2016,02,24,13,29,10.80
2016,02,24,13,30,10.70
2016,02,24,13,31,10.70
2016,02,24,13,32,10.60
2016,02,24,13,33,10.60
2016,02,24,13,34,10.50
2016,02,24,13,35,10.40
2016,02,24,13,36,10.40
2016,02,24,13,37,10.40
2016,02,24,13,38,10.40
2016,02,24,13,39,10.30
2016,02,24,13,40,10.10
2016,02,24,13,41,10.10
2016,02,24,13,42,9.90
2016,02,24,13,43,9.90
2016,02,24,13,44,9.80
2016,02,24,13,45,9.80
2016,02,24,13,46,9.80
2016,02,24,13,47,9.90
2016,02,24,13,48,9.90
2016,02,24,13,49,9.80
2016,02,24,13,50,9.70
2016,02,24,13,51,9.60
2016,02,24,13,52,9.60
2016,02,24,13,53,9.70
2016,02,24,13,54,9.70
2016,02,24,13,55,9.70
2016,02,24,13,56,9.70
2016,02,24,13,57,9.80
2016,02,24,13,58,9.80
2016,02,24,13,59,9.80
2016,02,24,14,00,9.70
2016,02,24,14,01,9.70
2016,02,24,14,02,9.70
2016,02,24,14,03,9.70
2016,02,24,14,04,9.70
2016,02,24,14,05,9.70
2016,02,24,14,06,9.70
2016,02,24,14,07,9.80
2016,02,24,14,08,9.90
2016,02,24,14,09,9.90
2016,02,24,14,10,9.90
2016,02,24,14,11,9.90
2016,02,24,14,12,9.90
2016,02,24,14,13,9.90
2016,02,24,14,14,10.00
2016,02,24,14,15,10.10
2016,02,24,14,16,10.00
2016,02,24,14,17,9.90
2016,02,24,14,18,9.80
2016,02,24,14,19,9.80
2016,02,24,14,20,9.70
2016,02,24,14,21,9.70
2016,02,24,14,22,9.60
2016,02,24,14,23,9.60
2016,02,24,14,24,9.60
2016,02,24,14,25,9.50
2016,02,24,14,26,9.50
2016,02,24,14,27,9.50
2016,02,24,14,28,9.50
2016,02,24,14,29,9.50
2016,02,24,14,30,9.60
2016,02,24,14,31,9.60
2016,02,24,14,32,9.50
2016,02,24,14,33,9.50
2016,02,24,14,34,9.50
2016,02,24,14,35,9.40
2016,02,24,14,36,9.40
2016,02,24,14,37,9.40
2016,02,24,14,38,9.40
2016,02,24,14,39,9.30
2016,02,24,14,40,9.30
2016,02,24,14,41,9.30
2016,02,24,14,42,9.30
2016,02,24,14,43,9.30
2016,02,24,14,44,9.20
2016,02,24,14,45,9.20
2016,02,24,14,46,9.20
2016,02,24,14,47,9.30
2016,02,24,14,48,9.30
2016,02,24,14,49,9.30
2016,02,24,14,50,9.30
2016,02,24,14,51,9.30
2016,02,24,14,52,9.20
2016,02,24,14,53,9.20
2016,02,24,14,54,9.20
2016,02,24,14,55,9.20
2016,02,24,14,56,9.20
2016,02,24,14,57,9.30
2016,02,24,14,58,9.30
2016,02,24,14,59,9.40
2016,02,24,15,00,9.40
2016,02,24,15,01,9.30
2016,02,24,15,02,9.30
2016,02,24,15,03,9.30
2016,02,24,15,04,9.20
2016,02,24,15,05,9.20
2016,02,24,15,06,9.20
2016,02,24,15,07,9.20
2016,02,24,15,08,9.30
2016,02,24,15,09,9.30
2016,02,24,15,10,9.30
2016,02,24,15,11,9.40
2016,02,24,15,12,9.40
2016,02,24,15,13,9.50
2016,02,24,15,14,9.50
2016,02,24,15,15,9.50
2016,02,24,15,16,9.50
2016,02,24,15,17,9.50
2016,02,24,15,18,9.50
2016,02,24,15,19,9.50
2016,02,24,15,20,9.50
2016,02,24,15,21,9.50
2016,02,24,15,22,9.50
2016,02,24,15,23,9.50
2016,02,24,15,24,9.50
2016,02,24,15,25,9.50
2016,02,24,15,26,9.50
2016,02,24,15,27,9.50
2016,02,24,15,28,9.50
2016,02,24,15,29,9.50
2016,02,24,15,30,9.50
2016,02,24,15,31,9.50
2016,02,24,15,32,9.50
2016,02,24,15,33,9.60
2016,02,24,15,34,9.60
2016,02,24,15,35,9.50
2016,02,24,15,36,9.50
2016,02,24,15,37,9.50
2016,02,24,15,38,9.50
2016,02,24,15,39,9.50
2016,02,24,15,40,9.50
2016,02,24,15,41,9.50
2016,02,24,15,42,9.50
2016,02,24,15,43,9.50
2016,02,24,15,44,9.50
2016,02,24,15,45,9.50
2016,02,24,15,46,9.50
2016,02,24,15,47,9.60
2016,02,24,15,48,9.60
2016,02,24,15,49,9.60
2016,02,24,15,50,9.60
2016,02,24,15,51,9.70
2016,02,24,15,52,9.70
2016,02,24,15,53,9.70
2016,02,24,15,54,9.70
2016,02,24,15,55,9.70
2016,02,24,15,56,9.70
2016,02,24,15,57,9.60
2016,02,24,15,58,9.60
2016,02,24,15,59,9.60
2016,02,24,16,00,9.60
2016,02,24,16,01,9.60
2016,02,24,16,02,9.60
2016,02,24,16,03,9.60
2016,02,24,16,04,9.60
2016,02,24,16,05,9.60
2016,02,24,16,06,9.60
2016,02,24,16,07,9.60
2016,02,24,16,08,9.60
2016,02,24,16,09,9.60
2016,02,24,16,10,9.60
2016,02,24,16,11,9.60
2016,02,24,16,12,9.50
2016,02,24,16,13,9.50
2016,02,24,16,14,9.50
2016,02,24,16,15,9.50
2016,02,24,16,16,9.50
2016,02,24,16,17,9.50
2016,02,24,16,18,9.40
2016,02,24,16,19,9.40
2016,02,24,16,20,9.40
2016,02,24,16,21,9.40
2016,02,24,16,22,9.40
2016,02,24,16,23,9.40
2016,02,24,16,24,9.40
2016,02,24,16,25,9.40
2016,02,24,16,26,9.40
2016,02,24,16,27,9.50
2016,02,24,16,28,9.50
2016,02,24,16,29,9.50
2016,02,24,16,30,9.50
2016,02,24,16,31,9.50
2016,02,24,16,32,9.50
2016,02,24,16,33,9.60
2016,02,24,16,34,9.70
2016,02,24,16,35,9.70
2016,02,24,16,36,9.80
2016,02,24,16,37,9.80
2016,02,24,16,38,9.90
2016,02,24,16,39,9.90
2016,02,24,16,40,10.00
2016,02,24,16,41,10.10
2016,02,24,16,42,10.10
2016,02,24,16,43,10.20
2016,02,24,16,44,10.20
2016,02,24,16,45,10.20
2016,02,24,16,46,10.20
2016,02,24,16,47,10.20
2016,02,24,16,48,10.20
2016,02,24,16,49,10.20
2016,02,24,16,50,10.30
2016,02,24,16,51,10.30
2016,02,24,16,52,10.30
2016,02,24,16,53,10.30
2016,02,24,16,54,10.30
2016,02,24,16,55,10.40
2016,02,24,16,56,10.40
2016,02,24,16,57,10.40
2016,02,24,16,58,10.40
2016,02,24,16,59,10.40
2016,02,24,17,00,10.40
2016,02,24,17,01,10.40
2016,02,24,17,02,10.40
2016,02,24,17,03,10.30
2016,02,24,17,04,10.20
2016,02,24,17,05,10.10
2016,02,24,17,06,10.10
2016,02,24,17,07,10.00
2016,02,24,17,08,9.90
2016,02,24,17,09,9.80
2016,02,24,17,10,9.80
2016,02,24,17,11,9.70
2016,02,24,17,12,9.70
2016,02,24,17,13,9.70
2016,02,24,17,14,9.60
2016,02,24,17,15,9.60
2016,02,24,17,16,9.50
2016,02,24,17,17,9.50
2016,02,24,17,18,9.40
2016,02,24,17,19,9.40
2016,02,24,17,20,9.40
2016,02,24,17,21,9.30
2016,02,24,17,22,9.30
2016,02,24,17,23,9.30
2016,02,24,17,24,9.20
2016,02,24,17,25,9.20
2016,02,24,17,26,9.20
2016,02,24,17,27,9.20
2016,02,24,17,28,9.20
2016,02,24,17,29,9.10
2016,02,24,17,30,9.10
2016,02,24,17,31,9.00
2016,02,24,17,32,9.00
2016,02,24,17,33,8.90
2016,02,24,17,34,8.90
2016,02,24,17,35,8.80
2016,02,24,17,36,8.70
2016,02,24,17,37,8.70
2016,02,24,17,38,8.70
2016,02,24,17,39,8.60
2016,02,24,17,40,8.60
2016,02,24,17,41,8.60
2016,02,24,17,42,8.50
2016,02,24,17,43,8.50
2016,02,24,17,44,8.40
2016,02,24,17,45,8.40
2016,02,24,17,46,8.30
2016,02,24,17,47,8.30
2016,02,24,17,48,8.30
2016,02,24,17,49,8.20
2016,02,24,17,50,8.20
2016,02,24,17,51,8.20
2016,02,24,17,52,8.20
2016,02,24,17,53,8.20
2016,02,24,17,54,8.20
2016,02,24,17,55,8.10
2016,02,24,17,56,8.10
2016,02,24,17,57,8.00